Tracking 28081 objects as of 26-Sep-2023
HD Live streaming from Space Station
objects crossing your sky now

STARLINK-4288

Track STARLINK-4288 now!
10-day predictions
STARLINK-4288 is classified as:


NORAD ID: 53005
Int'l Code: 2022-076V
Perigee: 546.0 km
Apogee: 547.6 km
Inclination: 53.2 °
Period: 95.4 minutes
Semi major axis: 6917 km
RCS: Unknown
Launch date: July 7, 2022
Source: United States (US)
Launch site: AIR FORCE EASTERN TEST RANGE (AFETR)
Your satellite tracking list
Your tracking list is empty




NASA's NSSDC Master Catalog

Two Line Element Set (TLE):
1 53005U 22076V   23268.89545141  .00007815  00000-0  50828-3 0  9995
2 53005  53.2167 155.4989 0001185  92.0540 268.0587 15.08859383 67611
Source of the keplerian elements: AFSPC